Location: Azul
(36.7830°S, 59.8500°W)
Time: 20:06:30
(UTC-03:00)

ISS - Pass Details

Date: 15 July 2019
Orbit: 409 x 418 km, 51.6° (Epoch: 23 July)

Event Time Altitude Azimuth Distance (km) Brightness Sun altitude
Rises 18:24:54 0° 242° (WSW) 2,391 0.7 -5.0°
Reaches altitude 10° 18:27:16 10° 256° (WSW) 1,519 0.0 -5.5°
Maximum altitude 18:30:03 23° 311° (NW) 941 -0.9 -6.0°
Drops below altitude 10° 18:32:49 10° 5° (N) 1,503 -0.7 -6.5°
Sets 18:35:09 0° 20° (NNE) 2,358 0.1 -6.9°
